[[{"header":{"parameterUnit":"m.s-1","parameterCategory":1,"la1":30.2991,"la2":30.254,"lo1":-89.0895,"lo2":-89.0444,"dy":0.0017,"dx":0.0017,"nx":28,"ny":28,"refTime":"2025-04-04T03:00:00:Z","depth":0,"parameterNumber":2,"parameterNumberName":"U-component_of_WINDS"},"data":[0,0,0,0,0,0,0,0,0,0,0,0,0,0,0,0,0,0,0,0,0,0,0,0,0,0,0,0,0,0,0,0,0,0,0,0,0,0,0,0,0,0,0,0,0,0,0,0,0,0,0,0,0,0,0,0,0,0,-4.0024,-4.0025,0,-4.0121,-4.0122,-4.0123,-4.0121,-4.012,-4.0119,-4.0117,-4.022,-4.0223,-4.0227,0,0,0,0,0,0,0,0,0,0,0,0,0,-3.9838,-3.9842,-4.0023,-4.0025,-4.0026,-4.0121,-4.0122,-4.0124,-4.0121,-4.012,-4.0118,-4.0117,-4.0218,-4.0223,-4.0228,0,0,0,0,0,0,0,0,0,0,0,0,0,-3.9926,-3.9843,-4.0023,-4.0036,-4.0038,-4.0121,-4.0122,-4.0124,-4.0122,-4.012,-4.0118,-4.0116,-4.0217,-4.0222,-4.0228,-4.0305,0,0,-4.0246,-4.0249,0,0,0,0,0,0,0,0,-3.9921,-3.9933,-4.0033,-4.0035,-4.0038,-4.0107,-4.0095,-4.0185,-4.0122,-4.009,-4.0117,-4.0115,-4.0184,-4.0192,-4.0215,-4.031,-4.0314,-4.0247,-4.0251,-4.0253,-4.0255,0,0,0,0,0,0,0,-3.9915,-3.9928,-4.0062,-4.0035,-4.0038,-4.0038,-4.0048,-4.0112,-4.0147,-4.0093,-4.0093,-4.0104,-4.0185,-4.0209,-4.0217,-4.0316,-4.0247,-4.0252,-4.0256,-4.0258,-4.0479,-4.0481,0,0,0,0,0,0,-3.9906,-3.9923,-4.0059,-4.0065,-3.9973,-4.0043,-4.0055,-4.0087,-4.0146,-4.0153,-4.0106,-4.0104,-4.02,-4.0211,-4.0221,-4.0314,-4.0253,-4.0259,-4.0262,-4.0477,-4.048,-4.0482,0,0,0,0,0,0,-3.9902,-3.9918,-4.0055,-3.9994,-4.0012,-4.0049,-4.0085,-4.009,-4.0114,-4.0156,-4.0163,-4.0124,-4.0199,-4.0213,-4.0284,-4.0318,-4.0261,-4.0267,-4.0474,-4.0478,-4.0481,-4.0502,0,0,0,0,0,0,-3.9896,-3.9916,-3.9945,-3.9995,-4.0015,-4.0115,-4.0087,-4.0093,-4.0124,-4.0123,-4.0175,-4.0182,-4.0199,-4.0275,-4.029,-4.0325,-4.0271,-4.0471,-4.0476,-4.048,-4.0498,-4.0505,-4.0512,0,0,0,0,0,-3.989,-3.9947,-3.9946,-3.9962,-4.0051,-4.0117,-4.0129,-4.0146,-4.0127,-4.0156,-4.0184,-4.018,-4.0313,-4.0283,-4.0299,-4.0336,-4.0469,-4.0475,-4.048,-4.0495,-4.0504,-4.0512,0,0,0,0,0,0,-3.99,-3.9954,-3.9953,-4.0028,-4.0068,-4.0117,-4.0154,-4.0155,-4.0201,-4.0198,-4.0218,-4.023,-4.0302,-4.0327,-4.0292,-4.0415,-4.0389,-4.0397,-4.0395,-4.0404,-4.041,-4.0402,-4.0276,0,0,0,0,0,-3.9911,-3.9959,-4.0004,-4.0066,-4.0086,-4.0117,-4.0146,-4.0156,-4.0199,-4.0216,-4.0248,-4.029,-4.0341,-4.0374,-4.0424,-4.0503,-4.0514,-4.0537,-4.0544,-4.0549,-4.0556,-4.06,-4.061,-4.0499,-4.0499,-4.0499,0,0,-3.9934,-3.9969,-3.9998,-4.0069,-4.0101,-4.0151,-4.0131,-4.0185,-4.0223,-4.0224,-4.0293,-4.0319,-4.0367,-4.0443,-4.0478,-4.0466,-4.059,-4.0556,-4.056,-4.0564,-4.0606,-4.0617,-4.0626,-4.0503,-4.0502,-4.0502,0,0,-4.0001,-4.0033,-4.0088,-4.0121,-4.0169,-4.019,-4.0203,-4.0253,-4.0269,-4.0339,-4.0341,-4.0388,-4.0475,-4.051,-4.0539,-4.0622,-4.0621,-4.0638,-4.0672,-4.0715,-4.0724,-4.0732,-4.0761,-4.0771,-4.0645,-4.0645,-4.0645,0,-4.0023,-4.0098,-4.0116,-4.017,-4.0201,-4.0206,-4.0262,-4.0294,-4.0356,-4.0378,-4.0365,-4.0475,-4.0508,-4.0592,-4.0612,-4.0636,-4.0652,-4.063,-4.0721,-4.0729,-4.0737,-4.0764,-4.0775,-4.0647,-4.0647,-4.0646,-4.0646,0,-4.0123,-4.0175,-4.0214,-4.0273,-4.031,-4.0365,-4.0392,-4.0427,-4.0435,-4.0458,-4.0529,-4.057,-4.0627,-4.0649,-4.0657,-4.0735,-4.0726,-4.0717,-4.069,-4.0749,-4.0775,-4.0786,-4.0649,-4.0648,-4.0648,-4.0648,0,0,-4.0196,-4.0266,-4.028,-4.0308,-4.0363,-4.0404,-4.0461,-4.0517,-4.0546,-4.0591,-4.0638,-4.0714,-4.0706,-4.0739,-4.0752,-4.079,-4.0853,-4.0776,-4.0778,-4.0788,-4.094,-4.0945,-4.0957,-4.0853,-4.0856,-4.0857,-4.0935,0,-4.0267,-4.0365,-4.0384,-4.047,-4.0519,-4.0525,-4.0575,-4.0615,-4.0638,-4.0684,-4.0711,-4.0763,-4.0749,-4.0769,-4.0808,-4.0837,-4.0883,-4.0832,-4.0898,-4.09,-4.0883,-4.0971,-4.0976,-4.1047,-4.0946,-4.0948,-4.0949,0,-4.0363,-4.0409,-4.0499,-4.0549,-4.057,-4.0614,-4.0667,-4.0711,-4.0758,-4.0772,-4.081,-4.082,-4.088,-4.0853,-4.0937,-4.0901,-4.0931,-4.0949,-4.0953,-4.0957,-4.0926,-4.0976,-4.107,-4.108,-4.0966,-4.0964,-4.0963,0,-4.0405,-4.049,-4.0555,-4.0579,-4.0639,-4.067,-4.0696,-4.0741,-4.0774,-4.0822,-4.0843,-4.0898,-4.0928,-4.097,-4.0995,-4.0973,-4.1077,-4.1052,-4.109,-4.109,-4.1109,-4.1107,-4.1207,-4.1132,-4.1132,-4.1131,-4.1131,0,-4.0481,-4.0536,-4.0575,-4.0614,-4.0677,-4.07,-4.0761,-4.0788,-4.0828,-4.0874,-4.0884,-4.0928,-4.0958,-4.1006,-4.1027,-4.1092,-4.1106,-4.112,-4.1124,-4.1118,-4.1116,-4.1135,-4.113,-4.1134,-4.1134,-4.1133,-4.1133,0,-4.0537,-4.0566,-4.0637,-4.0689,-4.0703,-4.0746,-4.0791,-4.0831,-4.0856,-4.0914,-4.0929,-4.0968,-4.1026,-4.1055,-4.1127,-4.1141,-4.1214,-4.1217,-4.1198,-4.1199,-4.1235,-4.123,-4.1349,-4.1366,-4.1281,-4.1282,-4.1282,0,-4.0583,-4.0625,-4.0682,-4.0713,-4.074,-4.079,-4.0824,-4.085,-4.0885,-4.0942,-4.0975,-4.1033,-4.108,-4.1172,-4.1207,-4.1263,-4.1265,-4.1303,-4.1273,-4.1266,-4.1264,-4.126,-4.1264,-4.1307,-4.1308,-4.1309,-4.131,0,-4.066,-4.0673,-4.072,-4.0773,-4.0813,-4.0856,-4.0899,-4.0925,-4.0958,-4.0997,-4.1055,-4.1092,-4.1166,-4.1223,-4.1281,-4.131,-4.1316,-4.1319,-4.1331,-4.1323,-4.131,-4.1316,-4.121,-4.1316,-4.1315,-4.1314,-4.1314,-4.1314,-4.0711,-4.0749,-4.0795,-4.0848,-4.0883,-4.0923,-4.0963,-4.0993,-4.1042,-4.1103,-4.1116,-4.1178,-4.1226,-4.1305,-4.1336,-4.1386,-4.1377,-4.1394,-4.1398,-4.1402,-4.1402,-4.1304,-4.1397,-4.1397,-4.1396,-4.1396,-4.1396,0,-4.0788,-4.0818,-4.0867,-4.0926,-4.0969,-4.0971,-4.1019,-4.1054,-4.1108,-4.1152,-4.1198,-4.1266,-4.1322,-4.1363,-4.1421,-4.1453,-4.1457,-4.1467,-4.1464,-4.147,-4.1407,-4.139,-4.1463,-4.1463,-4.1463,-4.1463,-4.1463,-4.1463,-4.0832,-4.0896,-4.0914,-4.0997,-4.1027,-4.1087,-4.1114,-4.1152,-4.1187,-4.1261,-4.1308,-4.1334,-4.1378,-4.1439,-4.1491,-4.1502,-4.1522,-4.1532,-4.1543,-4.1482,-4.1475,-4.1468,-4.1452,-4.1537,-4.1537,-4.1602,-4.1602,-4.1603]},{"header":{"parameterUnit":"m.s-1","parameterCategory":1,"la1":30.2991,"la2":30.254,"lo1":-89.0895,"lo2":-89.0444,"dy":0.0017,"dx":0.0017,"nx":28,"ny":28,"refTime":"2025-04-04T03:00:00:Z","depth":0,"parameterNumber":3,"parameterNumberName":"V-component_of_WINDS"},"data":[0,0,0,0,0,0,0,0,0,0,0,0,0,0,0,0,0,0,0,0,0,0,0,0,0,0,0,0,0,0,0,0,0,0,0,0,0,0,0,0,0,0,0,0,0,0,0,0,0,0,0,0,0,0,0,0,0,0,3.89,3.89,0,3.8953,3.8954,3.8954,3.8989,3.8989,3.899,3.899,3.9043,3.9044,3.9045,0,0,0,0,0,0,0,0,0,0,0,0,0,3.8828,3.8829,3.89,3.89,3.8901,3.8953,3.8954,3.8954,3.8989,3.8989,3.899,3.899,3.9042,3.9044,3.9045,0,0,0,0,0,0,0,0,0,0,0,0,0,3.8868,3.8829,3.8899,3.8925,3.8927,3.8953,3.8954,3.8955,3.8989,3.8989,3.899,3.899,3.9042,3.9043,3.9045,3.9049,0,0,3.9051,3.9051,0,0,0,0,0,0,0,0,3.8866,3.887,3.892,3.8923,3.8926,3.8965,3.8948,3.8986,3.8989,3.8966,3.899,3.899,3.9016,3.902,3.9029,3.9052,3.9054,3.9051,3.9052,3.9053,3.9053,0,0,0,0,0,0,0,3.8863,3.8868,3.8921,3.8921,3.8924,3.8933,3.8939,3.8955,3.8988,3.8968,3.897,3.8976,3.9018,3.9028,3.9031,3.9055,3.9051,3.9052,3.9053,3.9054,3.9087,3.9086,0,0,0,0,0,0,3.8856,3.8866,3.8919,3.8922,3.8896,3.8934,3.8941,3.8952,3.8988,3.8994,3.8976,3.8978,3.9024,3.9029,3.9033,3.9042,3.9053,3.9054,3.9055,3.9087,3.9087,3.9086,0,0,0,0,0,0,3.8854,3.886,3.8917,3.8895,3.8903,3.8935,3.8947,3.8953,3.8963,3.8995,3.9,3.898,3.9025,3.903,3.9046,3.9044,3.9055,3.9057,3.9087,3.9087,3.9086,3.9059,0,0,0,0,0,0,3.8852,3.886,3.8861,3.8895,3.8904,3.8929,3.8947,3.8954,3.8966,3.8969,3.9,3.9005,3.9025,3.9043,3.9048,3.9047,3.9058,3.9087,3.9087,3.9086,3.906,3.9058,3.9056,0,0,0,0,0,3.885,3.885,3.8861,3.8867,3.8906,3.8928,3.8934,3.8958,3.8965,3.8968,3.8989,3.9004,3.9044,3.9044,3.905,3.905,3.9087,3.9087,3.9087,3.9061,3.9058,3.9056,0,0,0,0,0,0,3.8814,3.8855,3.8867,3.8879,3.89,3.8934,3.8937,3.8953,3.8972,3.8974,3.9003,3.9009,3.9022,3.9038,3.9037,3.9057,3.9068,3.9068,3.9047,3.9044,3.9042,3.9038,3.906,0,0,0,0,0,3.8808,3.8823,3.8857,3.8864,3.8875,3.8904,3.8915,3.8932,3.8955,3.8963,3.8985,3.9007,3.9024,3.9035,3.9053,3.9063,3.9071,3.9066,3.9064,3.9062,3.9062,3.9071,3.907,3.9085,3.9085,3.9085,0,0,3.8795,3.8819,3.8826,3.8858,3.8876,3.8892,3.8911,3.8926,3.8937,3.8965,3.8982,3.8999,3.9025,3.9039,3.9046,3.9052,3.906,3.9061,3.9059,3.9061,3.907,3.9069,3.9068,3.9084,3.9085,3.9085,0,0,3.8779,3.8798,3.8807,3.8826,3.8854,3.8875,3.8877,3.891,3.8923,3.894,3.8962,3.8977,3.9006,3.9024,3.9037,3.9032,3.9047,3.9037,3.9025,3.9033,3.9032,3.9031,3.9031,3.903,3.9037,3.9037,3.9037,0,3.8758,3.8782,3.8809,3.8824,3.8838,3.8866,3.8876,3.8893,3.8925,3.8934,3.8941,3.898,3.8999,3.9019,3.9018,3.9027,3.9032,3.9033,3.903,3.903,3.9029,3.9029,3.9029,3.9035,3.9035,3.9036,3.9036,0,3.8757,3.8773,3.8777,3.881,3.8825,3.8836,3.8866,3.8878,3.8895,3.8914,3.8933,3.8958,3.8982,3.8988,3.9003,3.9011,3.9014,3.9025,3.9036,3.9026,3.9027,3.9027,3.9033,3.9034,3.9034,3.9035,0,0,3.8718,3.8768,3.8769,3.8785,3.882,3.8834,3.8848,3.8873,3.8883,3.8905,3.8919,3.8945,3.8956,3.8971,3.8989,3.8997,3.8993,3.9007,3.9008,3.9005,3.9005,3.8997,3.8996,3.9004,3.9004,3.9004,3.9003,0,3.8708,3.8735,3.8762,3.878,3.8797,3.8825,3.8838,3.8861,3.888,3.8898,3.8919,3.8938,3.8951,3.896,3.8969,3.8992,3.8994,3.8992,3.9017,3.9018,3.901,3.8996,3.8987,3.8985,3.9003,3.9004,3.9004,0,3.8699,3.8722,3.8742,3.8779,3.8787,3.8797,3.8825,3.884,3.8868,3.8882,3.89,3.892,3.8938,3.8948,3.8973,3.8971,3.8983,3.8996,3.8997,3.9,3.901,3.9,3.8984,3.8984,3.9004,3.9004,3.9004,0,3.8671,3.8707,3.8724,3.8737,3.8779,3.8787,3.8804,3.8833,3.8847,3.8871,3.8881,3.8905,3.8919,3.8938,3.8965,3.8969,3.8988,3.8999,3.9,3.9,3.9002,3.9002,3.8989,3.9009,3.9009,3.9009,3.9009,0,3.8657,3.8669,3.8712,3.8723,3.8738,3.8769,3.8782,3.8802,3.8828,3.8843,3.8869,3.8883,3.8917,3.8936,3.8957,3.8976,3.8981,3.8993,3.8999,3.8991,3.899,3.9,3.9001,3.9009,3.9009,3.9009,3.9009,0,3.8627,3.8657,3.8678,3.8717,3.8728,3.8737,3.8771,3.8783,3.8805,3.8825,3.8831,3.8866,3.8889,3.8918,3.895,3.8964,3.8981,3.8989,3.8972,3.8976,3.8976,3.8976,3.8969,3.8971,3.8989,3.8989,3.8988,0,3.8617,3.8627,3.8668,3.8681,3.8699,3.8719,3.8735,3.8766,3.8782,3.8816,3.8824,3.885,3.8872,3.8909,3.8937,3.8962,3.8971,3.8967,3.8975,3.8968,3.8973,3.8972,3.8974,3.8965,3.8965,3.8964,3.8964,0,3.8595,3.8611,3.8632,3.8661,3.8679,3.8702,3.8726,3.8736,3.8772,3.8789,3.8814,3.8831,3.8866,3.8892,3.8921,3.894,3.8959,3.8962,3.8964,3.8956,3.8947,3.8953,3.8968,3.8962,3.8962,3.8962,3.8962,3.8962,3.8576,3.8587,3.8619,3.8643,3.8665,3.8688,3.8702,3.8728,3.8749,3.8781,3.8798,3.8823,3.8853,3.8895,3.8914,3.8934,3.8941,3.8943,3.8944,3.8944,3.8942,3.8943,3.894,3.894,3.894,3.894,3.894,0,3.8557,3.858,3.8602,3.8636,3.8656,3.8673,3.8702,3.8717,3.874,3.8766,3.8789,3.8819,3.8845,3.8876,3.8904,3.8915,3.8924,3.8921,3.8921,3.8926,3.8934,3.893,3.8914,3.8914,3.8914,3.8914,3.8914,3.8914,3.855,3.857,3.859,3.8622,3.8645,3.8671,3.8686,3.8707,3.8729,3.8762,3.8785,3.8806,3.8835,3.8866,3.8891,3.89,3.8909,3.8904,3.8915,3.8922,3.8925,3.8927,3.8923,3.8905,3.8905,3.8905,3.8905,3.8905]}]]